Location: Asheville, NC
(35.6000°N, 82.5500°W)
Time: 23:48:08

FO-29 - Pass Details

Date: 15 March 2018
Orbit: 800 x 1321 km, 98.5° (Epoch: 19 March)

Event Time Altitude Azimuth Distance (km) Brightness Sun altitude
Rises 21:57:02 0° 5° (N) 4,065 12.9 -28.6°
Reaches altitude 10° 21:59:39 10° 1° (N) 3,160 12.4 -29.1°
Maximum altitude 22:06:40 49° 289° (WNW) 1,607 10.9 -30.4°
Drops below altitude 10° 22:14:05 10° 218° (SW) 3,336 12.4 -31.8°
Sets 22:16:56 0° 213° (SSW) 4,308 13.0 -32.4°
